WetterOnline ( http://www.wetteronline.de )

Wetter aktuell Freiburg

Aktuelles Wetter: Freiburg/Flugplatz (236m)

6-stündlich | Neueste Meldungen
Ortszeit Temperatur Wetter
Fr, 19.10. 2:00 9.7° C wolkig
Do, 18.10. 20:00 12.7° C wolkig
Do, 18.10. 14:00 17.8° C leicht bewölkt
Do, 18.10. 8:00 5.9° C Nebel
Do, 18.10. 2:00 8.0° C wolkig
Mi, 17.10. 20:00 12.9° C wolkig
Mi, 17.10. 14:00 19.3° C leicht bewölkt
Mi, 17.10. 8:00 5.7° C wolkig
Ortszeit Temperatur Wetter
Fr, 19.10. 2:00 9.7° C wolkig
Fr, 19.10. 1:40 9.1° C wolkig
Fr, 19.10. 1:30 10.8° C wolkig
Fr, 19.10. 1:20 10.8° C wolkig
Fr, 19.10. 1:10 11.2° C wolkig
Fr, 19.10. 1:00 11.1° C wolkig
Fr, 19.10. 0:50 11.1° C wolkig
Fr, 19.10. 0:30 8.5° C wolkig
Fr, 19.10. 0:00 9.6° C wolkig
Do, 18.10. 23:30 9.1° C wolkig
Do, 18.10. 23:00 10.5° C wolkig
Ortszeit Relative Feuchte Sichtweite
Fr, 19.10. 2:00 100% 1.1 km
Do, 18.10. 20:00 84% 13 km
Do, 18.10. 14:00 61% 12 km
Do, 18.10. 8:00 98% 0.2 km
Do, 18.10. 2:00 95% 5.0 km
Mi, 17.10. 20:00 83% 11 km
Mi, 17.10. 14:00 49% 21 km
Mi, 17.10. 8:00 97% 8 km
Ortszeit Relative Feuchte Sichtweite
Fr, 19.10. 2:00 100% 1.1 km
Fr, 19.10. 1:40 94% -
Fr, 19.10. 1:30 96% 2.3 km
Fr, 19.10. 1:20 96% -
Fr, 19.10. 1:10 96% -
Fr, 19.10. 1:00 95% 3.3 km
Fr, 19.10. 0:50 95% -
Fr, 19.10. 0:30 94% 6 km
Fr, 19.10. 0:00 95% 5.0 km
Do, 18.10. 23:30 95% 6 km
Do, 18.10. 23:00 91% 8 km
Ortszeit Niederschlagsmenge Niederschlagsart
Fr, 19.10. 2:00 0.1 l/m2 in 6 Std. -
Do, 18.10. 20:00 0.0 l/m2 in 12 Std. -
Do, 18.10. 14:00 0.0 l/m2 in 6 Std. -
Do, 18.10. 8:00 0.0 l/m2 in 12 Std. -
Do, 18.10. 2:00 0.0 l/m2 in 6 Std. -
Mi, 17.10. 20:00 0.0 l/m2 in 12 Std. -
Mi, 17.10. 14:00 0.0 l/m2 in 6 Std. -
Mi, 17.10. 8:00 0.0 l/m2 in 12 Std. -
Ortszeit Niederschlagsmenge Niederschlagsart
Fr, 19.10. 2:00 0.1 l/m2 in 1 Std. -
Fr, 19.10. 1:40 keine Meldung -
Fr, 19.10. 1:30 0.1 l/m2 in 1 Std. -
Fr, 19.10. 1:20 keine Meldung -
Fr, 19.10. 1:10 keine Meldung -
Fr, 19.10. 1:00 0.0 l/m2 in 1 Std. -
Fr, 19.10. 0:50 keine Meldung -
Fr, 19.10. 0:30 0.0 l/m2 in 1 Std. -
Fr, 19.10. 0:00 0.0 l/m2 in 1 Std. -
Do, 18.10. 23:30 0.0 l/m2 in 1 Std. -
Do, 18.10. 23:00 0.0 l/m2 in 1 Std. -
Ortszeit Stärke Spitze Richtung
km/h Bft. km/h Grad Sektor
Fr, 19.10. 2:00 4 1 14 320° NW
Do, 18.10. 20:00 0 0 22 - -
Do, 18.10. 14:00 7 2 14 310° NW
Do, 18.10. 8:00 0 0 7 - -
Do, 18.10. 2:00 0 0 7 - -
Mi, 17.10. 20:00 2 1 17 160° S
Mi, 17.10. 14:00 7 2 18 10° N
Mi, 17.10. 8:00 0 0 7 - -
Ortszeit Stärke Spitze Richtung
km/h Bft. km/h Grad Sektor
Fr, 19.10. 2:00 4 1 11 320° NW
Fr, 19.10. 1:40 4 1 - 350° N
Fr, 19.10. 1:30 6 1 9 30° NO
Fr, 19.10. 1:20 6 1 - 30° NO
Fr, 19.10. 1:10 7 2 - 40° NO
Fr, 19.10. 1:00 7 2 14 360° N
Fr, 19.10. 0:50 7 2 - 360° N
Fr, 19.10. 0:30 6 1 7 350° N
Fr, 19.10. 0:00 0 0 4 - -
Do, 18.10. 23:30 4 1 4 340° N
Do, 18.10. 23:00 0 0 11 - -
Ortszeit Untergrenze Bedeckung Gattung
total tief tief mittel hoch
Fr, 19.10. 2:00 10500 m 8/8 0/8 - - -
Do, 18.10. 20:00 10500 m 8/8 0/8 - - -
Do, 18.10. 14:00 8100 m 8/8 0/8 - - -
Do, 18.10. 8:00 8400 m 8/8 0/8 - - -
Do, 18.10. 2:00 7800 m 8/8 0/8 - - -
Mi, 17.10. 20:00 7500 m 8/8 0/8 - - -
Mi, 17.10. 14:00 8100 m 8/8 0/8 - - -
Mi, 17.10. 8:00 8700 m 8/8 0/8 - - -
Ortszeit Bedeckungsgrad in Achtel und Wolkenuntergrenze
Fr, 19.10. 2:00 8(10500m)
Fr, 19.10. 1:40 8(10500m)
Fr, 19.10. 1:30 4(9000m) 8(10500m)
Fr, 19.10. 1:20 4(9000m) 8(10500m)
Fr, 19.10. 1:10 8(9000m) 8(10500m)
Fr, 19.10. 1:00 5(9000m) 8(10500m)
Fr, 19.10. 0:50 5(9000m) 8(10500m)
Fr, 19.10. 0:30 4(9000m) 8(10500m) 8(10500m)
Fr, 19.10. 0:00 8(10500m) 8(10500m) 8(10500m)
Do, 18.10. 23:30 3(9000m) 8(10500m)
Do, 18.10. 23:00 3(9000m) 7(9000m) 8(10500m)
Ortszeit Luftdruck NN (hPa) Tendenz (hPa in 3 Std.)
Fr, 19.10. 2:00 1021 - 0,1
Do, 18.10. 20:00 1019 + 1,1
Do, 18.10. 14:00 1018 - 0,9
Do, 18.10. 8:00 1020 + 0,7
Do, 18.10. 2:00 1019 - 0,2
Mi, 17.10. 20:00 1018 + 0,8
Mi, 17.10. 14:00 1018 - 1,3
Mi, 17.10. 8:00 1020 + 0,2
Ortszeit Luftdruck NN (hPa) Tendenz (hPa in 3 Std.)
Fr, 19.10. 2:00 1021 - 0,1
Fr, 19.10. 1:40 1021 keine Meldung
Fr, 19.10. 1:30 1021 0,0
Fr, 19.10. 1:20 1021 keine Meldung
Fr, 19.10. 1:10 1021 keine Meldung
Fr, 19.10. 1:00 1021 + 0,3
Fr, 19.10. 0:50 1021 keine Meldung
Fr, 19.10. 0:30 1021 + 0,5
Fr, 19.10. 0:00 1021 + 0,7
Do, 18.10. 23:30 1021 + 1,0
Do, 18.10. 23:00 1021 + 1,4
Ortszeit Schneehöhe (cm)
Fr, 19.10. 2:00 0
Do, 18.10. 20:00 0
Do, 18.10. 14:00 0
Do, 18.10. 8:00 0
Do, 18.10. 2:00 0
Mi, 17.10. 20:00 0
Mi, 17.10. 14:00 0
Mi, 17.10. 8:00 0
Ortszeit Schneehöhe (cm)
Fr, 19.10. 2:00 0
Fr, 19.10. 1:40 0
Fr, 19.10. 1:30 0
Fr, 19.10. 1:20 0
Fr, 19.10. 1:10 -
Fr, 19.10. 1:00 0
Fr, 19.10. 0:50 0
Fr, 19.10. 0:30 0
Fr, 19.10. 0:00 0
Do, 18.10. 23:30 0
Do, 18.10. 23:00 0
Link zu dieser Seite / Seite empfehlen

Das Wetter in ...